Location: Gleizolles
(44.4833°N, 6.7667°E)
Time: 03:20:38
(UTC+00:00)

Nadezhda 3 Rocket - Pass Details

Date: 09 April 2020
Orbit: 956 x 1000 km, 82.9° (Epoch: 02 June)

Event Time Altitude Azimuth Distance (km) Brightness Sun altitude
Exits shadow 21:41:21 60° 260° (W) 1,127 4.3 -31.7°
Maximum altitude 21:41:49 62° 281° (W) 1,110 4.3 -31.7°
Drops below altitude 10° 21:48:03 10° 2° (N) 2,742 7.0 -32.3°
Sets 21:50:37 0° 6° (N) 3,688 7.7 -32.5°
